Time,TemperatureF,DewpointF,PressureIn,WindDirection,WindDirectionDegrees,WindSpeedMPH,WindSpeedGustMPH,Humidity,HourlyPrecipIn,Conditions,Clouds,dailyrainin,SoftwareType,DateUTC
2013-02-21 00:01:00,63.0,60.0,30.12,South,184,0.0,-999.0,90,-99.99,,,-99.99,,2013-02-21 10:01:00,
2013-02-21 00:11:00,63.0,60.0,30.12,South,184,0.0,-999.0,90,-99.99,,,-99.99,,2013-02-21 10:11:00,
2013-02-21 00:21:00,62.0,59.0,30.13,South,184,0.0,-999.0,89,-99.99,,,-99.99,,2013-02-21 10:21:00,
2013-02-21 00:31:00,62.0,59.0,30.13,South,184,0.0,-999.0,89,-99.99,,,-99.99,,2013-02-21 10:31:00,
2013-02-21 00:41:00,62.0,59.0,30.13,South,184,0.0,-999.0,89,-99.99,,,-99.99,,2013-02-21 10:41:00,
2013-02-21 00:51:00,62.0,59.0,30.13,South,184,0.0,-999.0,90,-99.99,,,-99.99,,2013-02-21 10:51:00,
2013-02-21 01:00:00,62.0,59.0,30.13,South,184,0.0,-999.0,90,-99.99,,,-99.99,,2013-02-21 11:00:00,
2013-02-21 01:10:00,62.0,59.0,30.13,South,184,0.0,-999.0,90,-99.99,,,-99.99,,2013-02-21 11:10:00,
2013-02-21 01:21:00,63.0,60.0,30.12,South,184,0.0,-999.0,89,-99.99,,,-99.99,,2013-02-21 11:21:00,
2013-02-21 01:31:00,63.0,60.0,30.12,South,184,0.0,-999.0,89,-99.99,,,-99.99,,2013-02-21 11:31:00,
2013-02-21 01:41:00,63.0,60.0,30.12,South,184,0.0,-999.0,89,-99.99,,,-99.99,,2013-02-21 11:41:00,
2013-02-21 01:51:00,63.0,60.0,30.11,South,184,0.0,-999.0,89,-99.99,,,-99.99,,2013-02-21 11:51:00,
2013-02-21 02:01:00,63.0,60.0,30.10,South,184,0.0,-999.0,89,-99.99,,,-99.99,,2013-02-21 12:01:00,
2013-02-21 02:11:00,63.0,60.0,30.10,South,184,0.0,-999.0,89,-99.99,,,-99.99,,2013-02-21 12:11:00,
2013-02-21 02:21:00,63.0,60.0,30.10,South,184,0.0,-999.0,89,-99.99,,,-99.99,,2013-02-21 12:21:00,
2013-02-21 02:32:00,63.0,60.0,30.09,South,184,0.0,-999.0,89,-99.99,,,-99.99,,2013-02-21 12:32:00,
2013-02-21 02:42:00,63.0,59.0,30.10,South,184,0.0,-999.0,88,-99.99,,,-99.99,,2013-02-21 12:42:00,
2013-02-21 02:52:00,63.0,59.0,30.10,South,184,0.0,-999.0,88,-99.99,,,-99.99,,2013-02-21 12:52:00,
2013-02-21 03:01:00,63.0,59.0,30.10,South,184,0.0,-999.0,88,-99.99,,,-99.99,,2013-02-21 13:01:00,
2013-02-21 03:12:00,63.0,59.0,30.10,South,184,0.0,-999.0,88,-99.99,,,-99.99,,2013-02-21 13:12:00,
2013-02-21 03:22:00,63.0,59.0,30.09,South,184,0.0,-999.0,87,-99.99,,,-99.99,,2013-02-21 13:22:00,
2013-02-21 03:31:00,63.0,59.0,30.09,South,184,0.0,-999.0,87,-99.99,,,-99.99,,2013-02-21 13:31:00,
2013-02-21 03:41:00,63.0,59.0,30.09,South,184,0.0,-999.0,87,-99.99,,,-99.99,,2013-02-21 13:41:00,
2013-02-21 03:52:00,63.0,59.0,30.09,South,184,0.0,-999.0,87,-99.99,,,-99.99,,2013-02-21 13:52:00,
2013-02-21 04:01:00,62.0,58.0,30.09,South,184,0.0,-999.0,87,-99.99,,,-99.99,,2013-02-21 14:01:00,
2013-02-21 04:11:00,62.0,58.0,30.09,South,184,0.0,-999.0,87,-99.99,,,-99.99,,2013-02-21 14:11:00,
2013-02-21 04:21:00,62.0,58.0,30.08,South,184,0.0,-999.0,87,-99.99,,,-99.99,,2013-02-21 14:21:00,
2013-02-21 04:31:00,62.0,58.0,30.08,South,184,0.0,-999.0,88,-99.99,,,-99.99,,2013-02-21 14:31:00,
2013-02-21 04:41:00,62.0,58.0,30.08,South,184,0.0,-999.0,88,-99.99,,,-99.99,,2013-02-21 14:41:00,
2013-02-21 04:52:00,61.0,57.0,30.09,South,184,0.0,-999.0,88,-99.99,,,-99.99,,2013-02-21 14:52:00,
2013-02-21 05:01:00,61.0,57.0,30.09,South,184,0.0,-999.0,87,-99.99,,,-99.99,,2013-02-21 15:01:00,
2013-02-21 05:12:00,61.0,57.0,30.09,South,184,0.0,-999.0,87,-99.99,,,-99.99,,2013-02-21 15:12:00,
2013-02-21 05:21:00,61.0,57.0,30.09,South,184,0.0,-999.0,87,-99.99,,,-99.99,,2013-02-21 15:21:00,
2013-02-21 05:31:00,60.0,56.0,30.09,South,184,0.0,-999.0,88,-99.99,,,-99.99,,2013-02-21 15:31:00,
2013-02-21 05:41:00,60.0,56.0,30.09,South,184,0.0,-999.0,88,-99.99,,,-99.99,,2013-02-21 15:41:00,
2013-02-21 05:52:00,60.0,56.0,30.09,South,184,0.0,-999.0,88,-99.99,,,-99.99,,2013-02-21 15:52:00,
2013-02-21 06:01:00,61.0,57.0,30.10,South,184,0.0,-999.0,87,-99.99,,,-99.99,,2013-02-21 16:01:00,
2013-02-21 06:12:00,61.0,57.0,30.10,South,184,0.0,-999.0,87,-99.99,,,-99.99,,2013-02-21 16:12:00,
2013-02-21 06:21:00,61.0,57.0,30.10,South,184,0.0,-999.0,87,-99.99,,,-99.99,,2013-02-21 16:21:00,
2013-02-21 06:31:00,62.0,57.0,30.11,South,184,0.0,-999.0,83,-99.99,,,-99.99,,2013-02-21 16:31:00,
2013-02-21 06:42:00,62.0,56.0,30.10,South,184,0.0,-999.0,81,-99.99,,,-99.99,,2013-02-21 16:42:00,
2013-02-21 06:52:00,62.0,56.0,30.10,South,184,0.0,-999.0,81,-99.99,,,-99.99,,2013-02-21 16:52:00,
2013-02-21 07:01:00,62.0,56.0,30.11,South,184,0.0,-999.0,81,-99.99,,,-99.99,,2013-02-21 17:01:00,
2013-02-21 07:11:00,62.0,56.0,30.11,South,184,0.0,-999.0,81,-99.99,,,-99.99,,2013-02-21 17:11:00,
2013-02-21 07:21:00,62.0,56.0,30.12,South,184,0.0,-999.0,82,-99.99,,,-99.99,,2013-02-21 17:21:00,
2013-02-21 07:32:00,61.0,56.0,30.12,South,184,0.0,-999.0,83,-99.99,,,-99.99,,2013-02-21 17:32:00,
2013-02-21 07:41:00,61.0,56.0,30.12,South,184,0.0,-999.0,83,-99.99,,,-99.99,,2013-02-21 17:41:00,
2013-02-21 07:52:00,61.0,56.0,30.13,South,184,0.0,-999.0,84,-99.99,,,-99.99,,2013-02-21 17:52:00,
2013-02-21 08:01:00,61.0,56.0,30.13,South,184,0.0,-999.0,84,-99.99,,,-99.99,,2013-02-21 18:01:00,
2013-02-21 08:11:00,61.0,56.0,30.13,South,184,0.0,-999.0,84,-99.99,,,-99.99,,2013-02-21 18:11:00,
2013-02-21 08:21:00,62.0,57.0,30.14,South,184,0.0,-999.0,84,-99.99,,,-99.99,,2013-02-21 18:21:00,
2013-02-21 08:31:00,63.0,58.0,30.14,South,184,0.0,-999.0,84,-99.99,,,-99.99,,2013-02-21 18:31:00,
2013-02-21 08:42:00,63.0,58.0,30.14,South,184,0.0,-999.0,84,-99.99,,,-99.99,,2013-02-21 18:42:00,
2013-02-21 08:51:00,64.0,59.0,30.14,South,184,0.0,-999.0,85,-99.99,,,-99.99,,2013-02-21 18:51:00,
2013-02-21 09:01:00,66.0,62.0,30.14,South,184,0.0,-999.0,87,-99.99,,,-99.99,,2013-02-21 19:01:00,
2013-02-21 09:11:00,66.0,62.0,30.14,South,184,0.0,-999.0,87,-99.99,,,-99.99,,2013-02-21 19:11:00,
2013-02-21 09:21:00,68.0,63.0,30.14,South,188,0.0,-999.0,84,-99.99,,,-99.99,,2013-02-21 19:21:00,
2013-02-21 09:31:00,69.0,63.0,30.14,South,188,0.0,-999.0,80,-99.99,,,-99.99,,2013-02-21 19:31:00,
2013-02-21 09:41:00,69.0,63.0,30.14,South,188,0.0,-999.0,80,-99.99,,,-99.99,,2013-02-21 19:41:00,
2013-02-21 09:52:00,71.0,64.0,30.14,WNW,289,0.0,-999.0,78,-99.99,,,-99.99,,2013-02-21 19:52:00,
2013-02-21 10:01:00,73.0,65.0,30.14,WSW,238,0.0,-999.0,76,-99.99,,,-99.99,,2013-02-21 20:01:00,
2013-02-21 10:11:00,74.0,65.0,30.14,SSW,208,0.0,-999.0,74,-99.99,,,-99.99,,2013-02-21 20:11:00,
2013-02-21 10:21:00,74.0,65.0,30.14,SSW,208,0.0,-999.0,74,-99.99,,,-99.99,,2013-02-21 20:21:00,
2013-02-21 10:31:00,75.0,66.0,30.14,SW,214,1.0,-999.0,74,-99.99,,,-99.99,,2013-02-21 20:31:00,
2013-02-21 10:41:00,75.0,66.0,30.14,SW,214,1.0,-999.0,74,-99.99,,,-99.99,,2013-02-21 20:41:00,
2013-02-21 10:52:00,76.0,66.0,30.14,WSW,241,0.0,-999.0,72,-99.99,,,-99.99,,2013-02-21 20:52:00,
2013-02-21 11:02:00,76.0,66.0,30.13,North,360,0.0,-999.0,72,-99.99,,,-99.99,,2013-02-21 21:02:00,
2013-02-21 11:11:00,75.0,67.0,30.12,WSW,240,0.0,-999.0,75,-99.99,,,-99.99,,2013-02-21 21:11:00,
2013-02-21 11:21:00,75.0,67.0,30.12,WSW,240,0.0,-999.0,75,-99.99,,,-99.99,,2013-02-21 21:21:00,
2013-02-21 11:31:00,75.0,67.0,30.12,SW,226,0.0,-999.0,77,-99.99,,,-99.99,,2013-02-21 21:31:00,
2013-02-21 11:41:00,75.0,67.0,30.11,WNW,296,0.0,-999.0,75,-99.99,,,-99.99,,2013-02-21 21:41:00,
2013-02-21 11:52:00,75.0,67.0,30.11,WNW,296,0.0,-999.0,75,-99.99,,,-99.99,,2013-02-21 21:52:00,
2013-02-21 12:01:00,75.0,67.0,30.11,SSW,210,0.0,-999.0,76,-99.99,,,-99.99,,2013-02-21 22:01:00,
2013-02-21 12:11:00,75.0,67.0,30.11,SSW,210,0.0,-999.0,76,-99.99,,,-99.99,,2013-02-21 22:11:00,
2013-02-21 12:21:00,77.0,68.0,30.11,SSW,192,0.0,-999.0,74,-99.99,,,-99.99,,2013-02-21 22:21:00,
2013-02-21 12:31:00,76.0,67.0,30.10,South,186,1.0,-999.0,73,-99.99,,,-99.99,,2013-02-21 22:31:00,
2013-02-21 12:41:00,76.0,67.0,30.10,South,186,1.0,-999.0,73,-99.99,,,-99.99,,2013-02-21 22:41:00,
2013-02-21 12:52:00,75.0,67.0,30.10,SSW,211,0.0,-999.0,76,-99.99,,,-99.99,,2013-02-21 22:52:00,
2013-02-21 13:01:00,74.0,66.0,30.09,SSW,193,0.0,-999.0,77,-99.99,,,-99.99,,2013-02-21 23:01:00,
2013-02-21 13:11:00,74.0,66.0,30.09,SSW,193,0.0,-999.0,77,-99.99,,,-99.99,,2013-02-21 23:11:00,
2013-02-21 13:21:00,74.0,67.0,30.08,NW,317,0.0,-999.0,78,-99.99,,,-99.99,,2013-02-21 23:21:00,
2013-02-21 13:31:00,74.0,66.0,30.07,West,281,0.0,-999.0,77,-99.99,,,-99.99,,2013-02-21 23:31:00,
2013-02-21 13:41:00,74.0,66.0,30.07,West,281,0.0,-999.0,77,-99.99,,,-99.99,,2013-02-21 23:41:00,
2013-02-21 13:52:00,75.0,67.0,30.08,WNW,296,0.0,-999.0,76,-99.99,,,-99.99,,2013-02-21 23:52:00,
2013-02-21 14:01:00,75.0,67.0,30.07,West,266,0.0,-999.0,75,-99.99,,,-99.99,,2013-02-22 00:01:00,
2013-02-21 14:11:00,75.0,67.0,30.07,West,266,0.0,-999.0,75,-99.99,,,-99.99,,2013-02-22 00:11:00,
2013-02-21 14:21:00,74.0,66.0,30.06,NNW,335,0.0,-999.0,76,-99.99,,,-99.99,,2013-02-22 00:21:00,
2013-02-21 14:31:00,74.0,66.0,30.06,South,185,0.0,-999.0,76,-99.99,,,-99.99,,2013-02-22 00:31:00,
2013-02-21 14:41:00,74.0,66.0,30.06,South,185,0.0,-999.0,76,-99.99,,,-99.99,,2013-02-22 00:41:00,
2013-02-21 14:52:00,74.0,65.0,30.06,West,280,0.0,-999.0,74,-99.99,,,-99.99,,2013-02-22 00:52:00,
2013-02-21 15:01:00,74.0,66.0,30.06,SW,226,0.0,-999.0,75,-99.99,,,-99.99,,2013-02-22 01:01:00,
2013-02-21 15:11:00,74.0,66.0,30.06,SW,226,0.0,-999.0,75,-99.99,,,-99.99,,2013-02-22 01:11:00,
2013-02-21 15:21:00,74.0,66.0,30.06,SW,218,0.0,-999.0,75,-99.99,,,-99.99,,2013-02-22 01:21:00,
2013-02-21 15:32:00,73.0,65.0,30.05,South,188,0.0,-999.0,77,-99.99,,,-99.99,,2013-02-22 01:32:00,
2013-02-21 15:42:00,73.0,65.0,30.05,South,188,0.0,-999.0,77,-99.99,,,-99.99,,2013-02-22 01:42:00,
2013-02-21 15:52:00,74.0,66.0,30.06,South,188,0.0,-999.0,77,-99.99,,,-99.99,,2013-02-22 01:52:00,
2013-02-21 16:01:00,74.0,66.0,30.06,South,180,0.0,-999.0,76,-99.99,,,-99.99,,2013-02-22 02:01:00,
2013-02-21 16:11:00,74.0,66.0,30.06,South,180,0.0,-999.0,76,-99.99,,,-99.99,,2013-02-22 02:11:00,
2013-02-21 16:21:00,73.0,65.0,30.06,SSW,196,0.0,-999.0,76,-99.99,,,-99.99,,2013-02-22 02:21:00,
2013-02-21 16:31:00,73.0,65.0,30.06,SSW,198,0.0,-999.0,76,-99.99,,,-99.99,,2013-02-22 02:31:00,
2013-02-21 16:42:00,73.0,66.0,30.06,SSW,193,0.0,-999.0,78,-99.99,,,-99.99,,2013-02-22 02:42:00,
2013-02-21 16:52:00,73.0,66.0,30.06,SSW,193,0.0,-999.0,78,-99.99,,,-99.99,,2013-02-22 02:52:00,
2013-02-21 17:01:00,72.0,65.0,30.06,SSW,194,0.0,-999.0,80,-99.99,,,-99.99,,2013-02-22 03:01:00,
2013-02-21 17:11:00,72.0,65.0,30.06,SSW,194,0.0,-999.0,80,-99.99,,,-99.99,,2013-02-22 03:11:00,
2013-02-21 17:21:00,72.0,65.0,30.07,SSW,194,0.0,-999.0,80,-99.99,,,-99.99,,2013-02-22 03:21:00,
2013-02-21 17:31:00,72.0,65.0,30.08,SSW,205,0.0,-999.0,80,-99.99,,,-99.99,,2013-02-22 03:31:00,
2013-02-21 17:41:00,72.0,65.0,30.08,SSW,205,0.0,-999.0,80,-99.99,,,-99.99,,2013-02-22 03:41:00,
2013-02-21 17:52:00,71.0,65.0,30.09,SSE,154,0.0,-999.0,82,-99.99,,,-99.99,,2013-02-22 03:52:00,
2013-02-21 18:01:00,71.0,66.0,30.09,SSW,192,0.0,-999.0,83,-99.99,,,-99.99,,2013-02-22 04:01:00,
2013-02-21 18:11:00,71.0,66.0,30.09,SSW,192,0.0,-999.0,83,-99.99,,,-99.99,,2013-02-22 04:11:00,
2013-02-21 18:21:00,70.0,65.0,30.09,SSW,193,0.0,-999.0,84,-99.99,,,-99.99,,2013-02-22 04:21:00,
2013-02-21 18:31:00,70.0,65.0,30.09,SSW,192,0.0,-999.0,84,-99.99,,,-99.99,,2013-02-22 04:31:00,
2013-02-21 18:41:00,70.0,65.0,30.09,SSW,192,0.0,-999.0,84,-99.99,,,-99.99,,2013-02-22 04:41:00,
2013-02-21 18:51:00,69.0,65.0,30.09,SSW,193,0.0,-999.0,86,-99.99,,,-99.99,,2013-02-22 04:51:00,
2013-02-21 19:01:00,68.0,64.0,30.10,SSW,193,0.0,-999.0,88,-99.99,,,-99.99,,2013-02-22 05:01:00,
2013-02-21 19:11:00,68.0,64.0,30.10,SSW,193,0.0,-999.0,88,-99.99,,,-99.99,,2013-02-22 05:11:00,
2013-02-21 19:22:00,68.0,64.0,30.10,SSW,193,0.0,-999.0,88,-99.99,,,-99.99,,2013-02-22 05:22:00,
2013-02-21 19:32:00,67.0,63.0,30.11,SSW,192,0.0,-999.0,86,-99.99,,,-99.99,,2013-02-22 05:32:00,
2013-02-21 19:41:00,67.0,63.0,30.11,SSW,192,0.0,-999.0,86,-99.99,,,-99.99,,2013-02-22 05:41:00,
2013-02-21 19:52:00,66.0,62.0,30.11,SSW,192,0.0,-999.0,88,-99.99,,,-99.99,,2013-02-22 05:52:00,
2013-02-21 20:01:00,66.0,63.0,30.11,SSW,192,0.0,-999.0,89,-99.99,,,-99.99,,2013-02-22 06:01:00,
2013-02-21 20:11:00,66.0,63.0,30.11,SSW,192,0.0,-999.0,89,-99.99,,,-99.99,,2013-02-22 06:11:00,
2013-02-21 20:21:00,66.0,63.0,30.12,SSW,193,0.0,-999.0,89,-99.99,,,-99.99,,2013-02-22 06:21:00,
2013-02-21 20:31:00,66.0,63.0,30.12,SSW,193,0.0,-999.0,90,-99.99,,,-99.99,,2013-02-22 06:31:00,
2013-02-21 20:41:00,66.0,63.0,30.12,SSW,193,0.0,-999.0,90,-99.99,,,-99.99,,2013-02-22 06:41:00,
2013-02-21 20:52:00,67.0,64.0,30.12,SSW,192,0.0,-999.0,90,-99.99,,,-99.99,,2013-02-22 06:52:00,
2013-02-21 21:01:00,67.0,64.0,30.13,SSW,193,0.0,-999.0,89,-99.99,,,-99.99,,2013-02-22 07:01:00,
2013-02-21 21:11:00,67.0,63.0,30.12,SSW,192,0.0,-999.0,88,-99.99,,,-99.99,,2013-02-22 07:11:00,
2013-02-21 21:21:00,67.0,63.0,30.12,SSW,192,0.0,-999.0,88,-99.99,,,-99.99,,2013-02-22 07:21:00,
2013-02-21 21:31:00,66.0,62.0,30.13,SSW,192,0.0,-999.0,87,-99.99,,,-99.99,,2013-02-22 07:31:00,
2013-02-21 21:42:00,66.0,62.0,30.12,SSW,192,0.0,-999.0,87,-99.99,,,-99.99,,2013-02-22 07:42:00,
2013-02-21 21:52:00,66.0,62.0,30.12,SSW,192,0.0,-999.0,87,-99.99,,,-99.99,,2013-02-22 07:52:00,
2013-02-21 22:01:00,66.0,62.0,30.12,SSW,192,0.0,-999.0,88,-99.99,,,-99.99,,2013-02-22 08:01:00,
2013-02-21 22:11:00,66.0,62.0,30.12,SSW,192,0.0,-999.0,88,-99.99,,,-99.99,,2013-02-22 08:11:00,
2013-02-21 22:21:00,66.0,63.0,30.12,SSW,193,0.0,-999.0,89,-99.99,,,-99.99,,2013-02-22 08:21:00,
2013-02-21 22:31:00,66.0,63.0,30.12,SSW,192,0.0,-999.0,90,-99.99,,,-99.99,,2013-02-22 08:31:00,
2013-02-21 22:41:00,66.0,63.0,30.12,SSW,192,0.0,-999.0,90,-99.99,,,-99.99,,2013-02-22 08:41:00,
2013-02-21 22:52:00,66.0,63.0,30.13,SSW,192,0.0,-999.0,90,-99.99,,,-99.99,,2013-02-22 08:52:00,
2013-02-21 23:02:00,66.0,63.0,30.12,SSW,192,0.0,-999.0,89,-99.99,,,-99.99,,2013-02-22 09:02:00,
2013-02-21 23:11:00,66.0,63.0,30.13,SSW,192,0.0,-999.0,90,-99.99,,,-99.99,,2013-02-22 09:11:00,
2013-02-21 23:21:00,66.0,63.0,30.13,SSW,192,0.0,-999.0,90,-99.99,,,-99.99,,2013-02-22 09:21:00,
2013-02-21 23:31:00,65.0,62.0,30.14,SSW,192,0.0,-999.0,90,-99.99,,,-99.99,,2013-02-22 09:31:00,
2013-02-21 23:41:00,65.0,62.0,30.14,SSW,192,0.0,-999.0,90,-99.99,,,-99.99,,2013-02-22 09:41:00,
2013-02-21 23:52:00,65.0,62.0,30.13,SSW,192,0.0,-999.0,90,-99.99,,,-99.99,,2013-02-22 09:52:00,